QPF
0.01 0.01 0.01 0.01 0.01 0.01 0.01 0.01 0.01 0.00 0.01 0.01 0.02 0.03 0.03 0.02 0.02 0.01 0.01 0.01 0.01 0.01 0.01 0.01 0.01 0.01 0.02 0.03 0.04 0.04 0.04 0.04 0.05 0.05 0.04 0.03 0.04 0.05 0.05 0.05 0.05 0.04 0.03 0.02
0.01 0.01 0.01 0.00 0.00 0.00 0.01 0.01 0.01 0.00 0.00 0.01 0.03 0.04 0.04 0.03 0.03 0.02 0.02 0.02 0.02 0.01 0.01 0.01 0.01 0.01 0.02 0.03 0.03 0.04 0.04 0.05 0.05 0.05 0.05 0.04 0.03 0.02 0.03 0.04 0.04 0.04 0.04 0.03
0.01 0.00 0.00 0.01 0.00 0.01 0.01 0.01 0.01 0.01 0.00 0.01 0.03 0.03 0.02 0.02 0.02 0.01 0.01 0.01 0.02 0.02 0.02 0.02 0.02 0.02 0.02 0.03 0.04 0.04 0.05 0.06 0.05 0.04 0.04 0.04 0.04 0.02 0.02 0.03 0.03 0.02 0.02 0.02
0.01 0.00 0.01 0.01 0.01 0.01 0.00 0.00 0.00 0.01 0.01 0.02 0.02 0.03 0.02 0.02 0.01 0.01 0.01 0.01 0.02 0.02 0.02 0.02 0.02 0.02 0.02 0.02 0.03 0.05 0.06 0.06 0.06 0.05 0.03 0.03 0.03 0.04 0.02 0.02 0.02 0.01 0.01 0.01
0.01 0.00 0.01 0.01 0.01 0.01 0.01 0.00 0.00 0.01 0.01 0.02 0.03 0.03 0.02 0.01 0.01 0.01 0.01 0.01 0.02 0.02 0.01 0.01 0.02 0.02 0.02 0.02 0.03 0.04 0.05 0.06 0.06 0.06 0.03 0.02 0.02 0.02 0.04 0.04 0.03 0.02 0.01 0.01
0.01 0.00 0.00 0.00 0.01 0.01 0.01 0.01 0.01 0.01 0.02 0.03 0.02 0.03 0.02 0.02 0.02 0.01 0.01 0.01 0.02 0.01 0.01 0.01 0.01 0.01 0.01 0.01 0.03 0.04 0.04 0.05 0.06 0.07 0.06 0.03 0.02 0.02 0.02 0.04 0.05 0.03 0.02 0.01
0.00 0.00 0.00 0.00 0.00 0.01 0.02 0.02 0.03 0.03 0.03 0.03 0.02 0.01 0.02 0.01 0.01 0.01 0.01 0.01 0.01 0.01 0.01 0.01 0.01 0.00 0.00 0.00 0.01 0.03 0.03 0.03 0.05 0.05 0.05 0.05 0.03 0.01 0.01 0.02 0.03 0.04 0.03 0.02
0.00 0.00 0.00 0.00 0.00 0.01 0.02 0.02 0.02 0.02 0.02 0.01 0.01 0.01 0.01 0.01 0.01 0.01 0.01 0.01 0.01 0.01 0.01 0.01 0.01 0.00 0.00 0.00 0.01 0.02 0.02 0.02 0.03 0.04 0.03 0.03 0.02 0.02 0.01 0.01 0.01 0.02 0.02 0.02
0.01 0.00 0.00 0.00 0.00 0.01 0.01 0.01 0.01 0.02 0.01 0.01 0.01 0.01 0.01 0.01 0.00 0.00 0.01 0.01 0.01 0.01 0.01 0.01 0.01 0.01 0.00 0.01 0.01 0.01 0.02 0.01 0.02 0.02 0.02 0.02 0.02 0.02 0.02 0.02 0.02 0.01 0.02 0.02
0.01 0.01 0.00 0.00 0.00 0.00 0.01 0.01 0.02 0.02 0.03 0.01 0.01 0.01 0.01 0.01 0.00 0.00 0.01 0.01 0.01 0.01 0.01 0.01 0.01 0.01 0.01 0.01 0.01 0.01 0.01 0.02 0.02 0.02 0.02 0.02 0.02 0.02 0.02 0.03 0.02 0.02 0.02 0.02
0.02 0.03 0.01 0.00 0.00 0.00 0.01 0.01 0.02 0.02 0.02 0.02 0.01 0.01 0.01 0.01 0.01 0.01 0.01 0.01 0.01 0.02 0.02 0.01 0.01 0.01 0.01 0.01 0.02 0.02 0.01 0.02 0.02 0.02 0.02 0.02 0.02 0.02 0.03 0.03 0.03 0.02 0.02 0.02
0.01 0.03 0.03 0.01 0.00 0.00 0.01 0.01 0.02 0.03 0.02 0.02 0.02 0.02 0.02 0.01 0.01 0.01 0.01 0.01 0.01 0.01 0.01 0.01 0.01 0.01 0.01 0.01 0.02 0.02 0.01 0.01 0.01 0.02 0.02 0.03 0.04 0.04 0.03 0.03 0.03 0.03 0.02 0.02
0.01 0.02 0.03 0.03 0.01 0.01 0.01 0.01 0.01 0.02 0.03 0.03 0.03 0.02 0.02 0.01 0.01 0.01 0.01 0.01 0.01 0.01 0.01 0.01 0.01 0.01 0.01 0.01 0.01 0.02 0.01 0.01 0.01 0.01 0.02 0.02 0.03 0.04 0.04 0.03 0.03 0.03 0.02 0.02
0.02 0.03 0.02 0.02 0.01 0.01 0.01 0.00 0.01 0.01 0.03 0.02 0.01 0.01 0.01 0.01 0.01 0.01 0.01 0.01 0.01 0.01 0.01 0.01 0.01 0.01 0.01 0.01 0.01 0.01 0.01 0.01 0.01 0.01 0.01 0.02 0.02 0.02 0.02 0.03 0.03 0.03 0.03 0.02
0.01 0.03 0.02 0.01 0.01 0.01 0.01 0.01 0.01 0.01 0.01 0.01 0.01 0.01 0.01 0.01 0.01 0.01 0.01 0.01 0.01 0.01 0.01 0.01 0.01 0.01 0.01 0.01 0.01 0.01 0.01 0.01 0.02 0.01 0.01 0.01 0.02 0.02 0.01 0.02 0.02 0.03 0.03 0.03
0.01 0.02 0.01 0.01 0.01 0.01 0.01 0.01 0.01 0.01 0.01 0.01 0.01 0.01 0.01 0.01 0.01 0.01 0.01 0.01 0.01 0.01 0.01 0.01 0.01 0.01 0.01 0.01 0.01 0.01 0.01 0.01 0.02 0.01 0.01 0.01 0.01 0.02 0.02 0.02 0.02 0.02 0.02 0.03
0.02 0.02 0.02 0.02 0.01 0.01 0.01 0.01 0.01 0.01 0.01 0.01 0.01 0.01 0.01 0.01 0.01 0.01 0.01 0.01 0.01 0.01 0.01 0.01 0.01 0.01 0.02 0.02 0.02 0.01 0.02 0.02 0.02 0.02 0.01 0.01 0.01 0.01 0.01 0.02 0.01 0.01 0.02 0.02
0.01 0.02 0.03 0.03 0.02 0.02 0.01 0.00 0.00 0.01 0.01 0.01 0.01 0.01 0.01 0.01 0.01 0.01 0.01 0.01 0.01 0.01 0.01 0.01 0.01 0.02 0.02 0.02 0.02 0.01 0.01 0.01 0.01 0.02 0.02 0.01 0.01 0.01 0.01 0.01 0.01 0.01 0.01 0.02
0.01 0.01 0.02 0.03 0.03 0.02 0.01 0.00 0.00 0.00 0.01 0.01 0.01 0.01 0.01 0.01 0.01 0.01 0.01 0.01 0.01 0.01 0.01 0.01 0.01 0.02 0.02 0.02 0.02 0.02 0.02 0.02 0.02 0.02 0.02 0.02 0.01 0.01 0.01 0.01 0.01 0.01 0.01 0.02
0.01 0.01 0.02 0.02 0.03 0.02 0.00 0.00 0.00 0.00 0.01 0.00 0.01 0.01 0.01 0.01 0.01 0.01 0.01 0.01 0.01 0.01 0.01 0.01 0.01 0.01 0.01 0.02 0.02 0.02 0.02 0.02 0.02 0.02 0.02 0.02 0.02 0.02 0.01 0.01 0.01 0.02 0.02 0.02
0.01 0.01 0.02 0.02 0.02 0.01 0.01 0.00 0.00 0.01 0.01 0.00 0.00 0.01 0.00 0.00 0.01 0.00 0.00 0.01 0.01 0.01 0.01 0.01 0.01 0.01 0.01 0.02 0.01 0.01 0.01 0.02 0.02 0.02 0.02 0.02 0.02 0.02 0.02 0.02 0.02 0.02 0.02 0.02
0.01 0.01 0.01 0.01 0.02 0.01 0.01 0.00 0.01 0.01 0.00 0.00 0.00 0.00 0.00 0.00 0.00 0.00 0.00 0.00 0.00 0.00 0.00 0.00 0.01 0.01 0.01 0.01 0.01 0.01 0.01 0.01 0.02 0.02 0.02 0.02 0.02 0.02 0.02 0.02 0.02 0.02 0.02 0.02
0.01 0.01 0.01 0.01 0.01 0.01 0.01 0.01 0.01 0.00 0.00 0.00 0.00 0.00 0.00 0.00 0.00 0.00 0.00 0.00 0.00 0.00 0.00 0.00 0.00 0.00 0.00 0.00 0.01 0.01 0.01 0.01 0.01 0.01 0.01 0.01 0.01 0.01 0.01 0.01 0.02 0.02 0.02 0.02
0.01 0.01 0.01 0.01 0.01 0.01 0.01 0.00 0.00 0.00 0.00 0.00 0.00 0.00 0.00 0.00 0.00 0.00 0.00 0.00 0.00 0.00 0.00 0.00 0.00 0.00 0.00 0.00 0.00 0.00 0.01 0.01 0.01 0.01 0.01 0.01 0.01 0.01 0.01 0.01 0.01 0.01 0.01 0.02
0.02 0.01 0.01 0.01 0.01 0.01 0.01 0.00 0.00 0.00 0.00 0.00 0.00 0.00 0.00 0.00 0.00 0.01 0.01 0.01 0.01 0.00 0.00 0.00 0.00 0.00 0.00 0.00 0.00 0.00 0.01 0.01 0.01 0.01 0.01 0.01 0.01 0.01 0.01 0.01 0.02 0.02 0.02 0.02
0.01 0.01 0.01 0.01 0.01 0.01 0.01 0.01 0.00 0.00 0.00 0.01 0.01 0.01 0.01 0.01 0.01 0.01 0.01 0.01 0.01 0.00 0.00 0.00 0.00 0.01 0.00 0.00 0.01 0.01 0.01 0.01 0.01 0.01 0.01 0.01 0.01 0.01 0.01 0.01 0.01 0.01 0.02 0.02
MSLP
1016.27 1016.62 1016.91 1017.12 1017.26 1017.33 1017.38 1017.45 1017.61 1017.88 1018.31 1018.92 1019.68 1020.59 1021.58 1022.61 1023.59 1024.48 1025.21 1025.74 1026.06 1026.16 1026.05 1025.75 1025.32 1024.78 1024.19 1023.60 1023.06 1022.60 1022.27 1022.11 1022.12 1022.32 1022.67 1023.16 1023.74 1024.35 1024.95 1025.47 1025.89 1026.19 1026.38 1026.49
1016.34 1016.56 1016.72 1016.83 1016.90 1016.95 1017.04 1017.21 1017.49 1017.93 1018.53 1019.31 1020.24 1021.30 1022.41 1023.53 1024.57 1025.49 1026.23 1026.76 1027.05 1027.10 1026.93 1026.56 1026.04 1025.41 1024.73 1024.03 1023.39 1022.84 1022.43 1022.19 1022.14 1022.29 1022.62 1023.09 1023.66 1024.28 1024.89 1025.43 1025.88 1026.21 1026.43 1026.56
1016.35 1016.42 1016.44 1016.44 1016.44 1016.48 1016.60 1016.84 1017.24 1017.81 1018.57 1019.49 1020.56 1021.72 1022.92 1024.10 1025.18 1026.12 1026.86 1027.38 1027.65 1027.68 1027.48 1027.08 1026.53 1025.86 1025.14 1024.40 1023.71 1023.10 1022.64 1022.35 1022.25 1022.34 1022.62 1023.04 1023.57 1024.16 1024.75 1025.29 1025.75 1026.11 1026.36 1026.53
1016.39 1016.31 1016.21 1016.10 1016.03 1016.04 1016.18 1016.48 1016.97 1017.65 1018.51 1019.54 1020.70 1021.93 1023.18 1024.39 1025.48 1026.42 1027.16 1027.67 1027.93 1027.96 1027.76 1027.38 1026.83 1026.18 1025.46 1024.73 1024.04 1023.43 1022.94 1022.61 1022.44 1022.46 1022.65 1022.99 1023.45 1023.97 1024.51 1025.03 1025.49 1025.86 1026.15 1026.37
1016.57 1016.38 1016.15 1015.95 1015.82 1015.81 1015.95 1016.29 1016.83 1017.57 1018.51 1019.59 1020.79 1022.06 1023.32 1024.52 1025.61 1026.53 1027.26 1027.76 1028.03 1028.07 1027.90 1027.55 1027.05 1026.45 1025.79 1025.10 1024.44 1023.84 1023.34 1022.96 1022.73 1022.66 1022.74 1022.96 1023.30 1023.72 1024.19 1024.66 1025.10 1025.50 1025.83 1026.10
1016.98 1016.70 1016.39 1016.11 1015.92 1015.87 1016.01 1016.35 1016.91 1017.68 1018.64 1019.75 1020.95 1022.21 1023.46 1024.64 1025.70 1026.60 1027.31 1027.81 1028.09 1028.16 1028.03 1027.74 1027.31 1026.78 1026.18 1025.56 1024.94 1024.36 1023.84 1023.42 1023.11 1022.93 1022.88 1022.96 1023.16 1023.46 1023.84 1024.25 1024.67 1025.07 1025.44 1025.77
1017.67 1017.32 1016.95 1016.61 1016.37 1016.28 1016.39 1016.71 1017.27 1018.03 1018.97 1020.06 1021.24 1022.46 1023.68 1024.82 1025.86 1026.74 1027.43 1027.93 1028.23 1028.33 1028.26 1028.02 1027.67 1027.22 1026.70 1026.14 1025.57 1025.00 1024.47 1024.00 1023.60 1023.30 1023.12 1023.05 1023.10 1023.27 1023.54 1023.88 1024.27 1024.68 1025.08 1025.46
1018.61 1018.22 1017.79 1017.40 1017.12 1016.99 1017.06 1017.35 1017.86 1018.58 1019.48 1020.52 1021.66 1022.84 1024.01 1025.12 1026.13 1026.99 1027.69 1028.20 1028.52 1028.66 1028.63 1028.46 1028.17 1027.79 1027.34 1026.84 1026.31 1025.76 1025.22 1024.69 1024.21 1023.80 1023.48 1023.27 1023.18 1023.22 1023.38 1023.65 1023.99 1024.40 1024.82 1025.23
1019.72 1019.30 1018.83 1018.41 1018.08 1017.91 1017.92 1018.15 1018.61 1019.27 1020.10 1021.08 1022.17 1023.30 1024.43 1025.51 1026.50 1027.36 1028.06 1028.59 1028.94 1029.12 1029.15 1029.03 1028.81 1028.49 1028.10 1027.65 1027.15 1026.61 1026.05 1025.49 1024.94 1024.43 1023.99 1023.65 1023.44 1023.36 1023.42 1023.62 1023.92 1024.29 1024.71 1025.14
1020.89 1020.44 1019.95 1019.50 1019.13 1018.91 1018.87 1019.04 1019.42 1020.00 1020.76 1021.67 1022.69 1023.77 1024.87 1025.93 1026.92 1027.78 1028.50 1029.06 1029.45 1029.67 1029.74 1029.68 1029.51 1029.24 1028.91 1028.50 1028.03 1027.51 1026.95 1026.36 1025.76 1025.18 1024.66 1024.22 1023.90 1023.73 1023.70 1023.82 1024.06 1024.39 1024.78 1025.19
1021.99 1021.54 1021.05 1020.58 1020.19 1019.94 1019.84 1019.94 1020.24 1020.74 1021.42 1022.25 1023.20 1024.23 1025.29 1026.33 1027.31 1028.19 1028.94 1029.52 1029.95 1030.22 1030.34 1030.32 1030.20 1029.99 1029.70 1029.34 1028.91 1028.42 1027.86 1027.27 1026.65 1026.03 1025.46 1024.95 1024.56 1024.31 1024.20 1024.24 1024.41 1024.67 1025.01 1025.37
1022.99 1022.55 1022.07 1021.62 1021.23 1020.95 1020.82 1020.85 1021.08 1021.49 1022.07 1022.82 1023.69 1024.66 1025.68 1026.70 1027.67 1028.56 1029.32 1029.94 1030.40 1030.71 1030.87 1030.90 1030.83 1030.67 1030.43 1030.12 1029.74 1029.29 1028.77 1028.19 1027.58 1026.96 1026.35 1025.81 1025.37 1025.04 1024.86 1024.82 1024.91 1025.10 1025.34 1025.62
1023.89 1023.49 1023.06 1022.65 1022.28 1022.00 1021.84 1021.83 1021.98 1022.30 1022.79 1023.44 1024.23 1025.13 1026.08 1027.06 1028.01 1028.89 1029.66 1030.29 1030.78 1031.11 1031.31 1031.39 1031.37 1031.26 1031.08 1030.83 1030.50 1030.11 1029.64 1029.10 1028.52 1027.91 1027.30 1026.74 1026.26 1025.88 1025.64 1025.52 1025.52 1025.60 1025.75 1025.93
1024.76 1024.44 1024.09 1023.74 1023.42 1023.16 1022.99 1022.94 1023.02 1023.26 1023.65 1024.20 1024.89 1025.69 1026.57 1027.48 1028.38 1029.22 1029.97 1030.60 1031.10 1031.45 1031.68 1031.80 1031.82 1031.77 1031.65 1031.46 1031.20 1030.87 1030.46 1029.98 1029.44 1028.86 1028.26 1027.70 1027.19 1026.77 1026.46 1026.27 1026.18 1026.17 1026.22 1026.29
1025.70 1025.48 1025.24 1024.97 1024.72 1024.49 1024.32 1024.23 1024.26 1024.41 1024.70 1025.14 1025.71 1026.40 1027.18 1028.00 1028.82 1029.61 1030.31 1030.91 1031.40 1031.76 1032.00 1032.15 1032.22 1032.22 1032.16 1032.03 1031.85 1031.59 1031.24 1030.82 1030.33 1029.78 1029.21 1028.64 1028.12 1027.67 1027.31 1027.05 1026.88 1026.78 1026.74 1026.72
1026.81 1026.70 1026.56 1026.38 1026.19 1025.99 1025.82 1025.70 1025.67 1025.73 1025.92 1026.24 1026.69 1027.26 1027.92 1028.63 1029.36 1030.06 1030.70 1031.25 1031.70 1032.05 1032.30 1032.47 1032.57 1032.62 1032.62 1032.56 1032.44 1032.25 1031.97 1031.61 1031.17 1030.66 1030.12 1029.56 1029.04 1028.56 1028.17 1027.85 1027.62 1027.45 1027.33 1027.24
1028.10 1028.10 1028.04 1027.93 1027.77 1027.59 1027.41 1027.25 1027.15 1027.13 1027.21 1027.42 1027.75 1028.19 1028.73 1029.33 1029.95 1030.55 1031.11 1031.60 1032.01 1032.33 1032.57 1032.76 1032.89 1032.98 1033.03 1033.03 1032.98 1032.85 1032.64 1032.34 1031.95 1031.49 1030.98 1030.44 1029.92 1029.44 1029.03 1028.68 1028.41 1028.20 1028.03 1027.89
1029.55 1029.60 1029.58 1029.49 1029.34 1029.14 1028.92 1028.70 1028.53 1028.42 1028.41 1028.52 1028.74 1029.07 1029.49 1029.98 1030.50 1031.01 1031.48 1031.91 1032.27 1032.56 1032.79 1032.98 1033.14 1033.27 1033.36 1033.42 1033.43 1033.37 1033.22 1032.98 1032.65 1032.24 1031.77 1031.27 1030.77 1030.30 1029.89 1029.54 1029.26 1029.03 1028.84 1028.67
1031.01 1031.06 1031.03 1030.90 1030.70 1030.45 1030.16 1029.87 1029.62 1029.43 1029.34 1029.36 1029.49 1029.73 1030.07 1030.47 1030.90 1031.33 1031.74 1032.10 1032.42 1032.68 1032.91 1033.11 1033.29 1033.45 1033.59 1033.70 1033.77 1033.77 1033.68 1033.51 1033.24 1032.88 1032.47 1032.01 1031.56 1031.12 1030.74 1030.41 1030.14 1029.92 1029.73 1029.56
1032.33 1032.32 1032.22 1032.01 1031.72 1031.37 1030.99 1030.62 1030.29 1030.03 1029.87 1029.83 1029.90 1030.09 1030.36 1030.70 1031.07 1031.44 1031.80 1032.13 1032.41 1032.66 1032.89 1033.09 1033.29 1033.49 1033.67 1033.83 1033.96 1034.02 1034.00 1033.89 1033.69 1033.40 1033.05 1032.66 1032.26 1031.88 1031.54 1031.25 1031.01 1030.81 1030.65 1030.49
1033.34 1033.24 1033.02 1032.70 1032.29 1031.83 1031.35 1030.90 1030.50 1030.19 1029.99 1029.91 1029.95 1030.10 1030.35 1030.65 1030.99 1031.34 1031.67 1031.97 1032.24 1032.48 1032.71 1032.93 1033.15 1033.38 1033.60 1033.81 1033.98 1034.10 1034.15 1034.10 1033.98 1033.77 1033.49 1033.18 1032.85 1032.53 1032.25 1032.01 1031.81 1031.65 1031.51 1031.38
1033.96 1033.74 1033.40 1032.95 1032.43 1031.87 1031.30 1030.78 1030.34 1029.99 1029.77 1029.68 1029.72 1029.87 1030.11 1030.40 1030.73 1031.07 1031.38 1031.68 1031.94 1032.19 1032.42 1032.65 1032.89 1033.14 1033.39 1033.64 1033.85 1034.03 1034.13 1034.15 1034.10 1033.97 1033.77 1033.54 1033.29 1033.04 1032.82 1032.63 1032.48 1032.35 1032.24 1032.13
1034.15 1033.84 1033.39 1032.85 1032.24 1031.61 1030.99 1030.43 1029.97 1029.62 1029.40 1029.33 1029.38 1029.54 1029.78 1030.08 1030.41 1030.74 1031.06 1031.35 1031.61 1031.85 1032.09 1032.32 1032.57 1032.83 1033.10 1033.36 1033.61 1033.82 1033.97 1034.05 1034.06 1034.00 1033.89 1033.73 1033.56 1033.39 1033.23 1033.09 1032.98 1032.88 1032.79 1032.70
1033.99 1033.61 1033.11 1032.52 1031.88 1031.23 1030.61 1030.06 1029.61 1029.28 1029.09 1029.04 1029.11 1029.29 1029.55 1029.86 1030.19 1030.51 1030.82 1031.10 1031.35 1031.58 1031.81 1032.03 1032.27 1032.52 1032.78 1033.05 1033.30 1033.53 1033.71 1033.83 1033.90 1033.90 1033.85 1033.77 1033.67 1033.56 1033.45 1033.36 1033.29 1033.21 1033.14 1033.05
1033.58 1033.20 1032.70 1032.13 1031.52 1030.91 1030.33 1029.83 1029.43 1029.15 1029.01 1028.99 1029.09 1029.28 1029.55 1029.86 1030.18 1030.49 1030.78 1031.04 1031.27 1031.48 1031.67 1031.86 1032.07 1032.28 1032.52 1032.75 1032.99 1033.21 1033.39 1033.54 1033.63 1033.68 1033.69 1033.67 1033.62 1033.57 1033.52 1033.46 1033.41 1033.36 1033.30 1033.22
1033.06 1032.72 1032.29 1031.80 1031.27 1030.75 1030.27 1029.85 1029.53 1029.32 1029.23 1029.25 1029.38 1029.58 1029.85 1030.15 1030.45 1030.73 1030.99 1031.22 1031.41 1031.57 1031.71 1031.85 1032.00 1032.16 1032.33 1032.52 1032.71 1032.89 1033.06 1033.20 1033.32 1033.39 1033.44 1033.47 1033.47 1033.46 1033.45 1033.43 1033.40 1033.36 1033.31 1033.23
Thickness
5545 5535 5531 5534 5536 5538 5533 5530 5530 5534 5536 5530 5525 5526 5527 5529 5528 5527 5526 5526 5528 5530 5533 5536 5537 5539 5540 5541 5541 5543 5545 5546 5547 5547 5547 5547 5547 5547 5548 5549 5550 5551 5551 5552
5527 5524 5529 5530 5529 5526 5523 5520 5518 5520 5523 5518 5512 5512 5517 5518 5519 5520 5519 5517 5518 5520 5522 5524 5526 5526 5527 5528 5529 5532 5534 5535 5537 5538 5538 5538 5537 5537 5539 5539 5540 5540 5540 5541
5521 5520 5523 5522 5518 5517 5515 5510 5509 5508 5506 5503 5499 5502 5506 5509 5509 5510 5510 5509 5510 5511 5511 5513 5514 5514 5515 5516 5518 5521 5523 5524 5526 5527 5527 5526 5526 5526 5526 5527 5528 5529 5530 5531
5508 5511 5513 5511 5508 5506 5506 5506 5502 5497 5489 5482 5487 5483 5497 5497 5497 5499 5498 5496 5497 5499 5500 5500 5501 5502 5503 5505 5506 5508 5510 5512 5514 5515 5515 5515 5515 5515 5516 5517 5517 5518 5519 5520
5497 5499 5501 5501 5499 5498 5495 5494 5490 5487 5478 5470 5470 5466 5482 5483 5488 5492 5489 5487 5486 5487 5488 5488 5490 5490 5491 5492 5494 5496 5497 5499 5500 5501 5502 5503 5504 5504 5505 5505 5506 5507 5508 5509
5488 5490 5489 5489 5489 5488 5484 5480 5475 5464 5459 5459 5461 5456 5469 5470 5479 5483 5479 5475 5473 5473 5474 5475 5476 5477 5477 5479 5480 5482 5484 5485 5487 5488 5489 5490 5491 5492 5492 5494 5494 5495 5496 5497
5477 5478 5478 5478 5477 5476 5471 5462 5455 5451 5445 5450 5453 5448 5459 5464 5465 5466 5465 5462 5461 5460 5461 5462 5462 5463 5464 5464 5466 5468 5470 5472 5473 5475 5476 5477 5478 5479 5481 5482 5482 5483 5484 5485
5461 5464 5465 5464 5464 5460 5457 5454 5447 5444 5441 5441 5440 5442 5451 5452 5451 5450 5450 5449 5449 5448 5448 5449 5450 5450 5450 5451 5452 5454 5456 5458 5459 5461 5462 5464 5465 5467 5468 5469 5470 5471 5472 5473
5449 5453 5454 5454 5454 5453 5446 5438 5440 5428 5419 5419 5428 5429 5439 5441 5440 5438 5437 5436 5435 5435 5436 5437 5437 5437 5437 5438 5439 5440 5442 5444 5446 5448 5449 5450 5451 5453 5455 5456 5457 5458 5459 5460
5441 5435 5439 5440 5443 5441 5437 5431 5418 5418 5418 5419 5421 5419 5430 5434 5431 5428 5425 5422 5421 5422 5423 5424 5424 5425 5425 5425 5426 5427 5428 5430 5432 5434 5436 5438 5438 5440 5441 5442 5443 5445 5446 5447
5429 5423 5422 5424 5422 5423 5421 5417 5412 5405 5404 5406 5406 5421 5424 5423 5422 5418 5414 5411 5409 5409 5410 5411 5412 5412 5412 5412 5413 5414 5416 5417 5418 5420 5422 5423 5425 5426 5427 5428 5430 5431 5433 5434
5415 5407 5404 5408 5409 5408 5407 5405 5400 5402 5394 5385 5390 5409 5413 5407 5406 5404 5401 5399 5397 5397 5398 5398 5398 5399 5399 5400 5401 5401 5403 5404 5405 5407 5408 5410 5411 5412 5414 5415 5416 5418 5419 5420
5406 5395 5397 5404 5401 5393 5391 5390 5387 5384 5381 5374 5381 5400 5401 5393 5394 5392 5389 5386 5385 5386 5386 5385 5385 5385 5386 5387 5388 5389 5390 5391 5392 5394 5395 5396 5397 5398 5400 5401 5403 5404 5406 5407
5402 5385 5390 5398 5398 5386 5377 5377 5374 5373 5374 5371 5375 5390 5395 5388 5384 5382 5378 5375 5374 5374 5374 5373 5372 5372 5373 5373 5374 5376 5377 5378 5379 5381 5382 5383 5383 5385 5386 5388 5389 5391 5393 5394
5390 5379 5373 5375 5378 5375 5373 5371 5365 5363 5365 5370 5376 5375 5387 5381 5374 5371 5367 5363 5363 5363 5363 5362 5361 5359 5359 5360 5361 5363 5364 5365 5366 5367 5368 5369 5370 5372 5373 5374 5375 5377 5379 5380
5373 5368 5362 5363 5368 5365 5366 5366 5361 5360 5358 5357 5361 5368 5371 5365 5360 5356 5354 5353 5353 5352 5352 5351 5350 5348 5348 5348 5349 5350 5351 5352 5353 5354 5355 5356 5357 5359 5360 5361 5362 5363 5365 5366
5358 5355 5355 5355 5351 5356 5356 5359 5355 5351 5348 5350 5355 5363 5357 5353 5350 5346 5344 5343 5342 5342 5341 5339 5338 5337 5337 5336 5337 5337 5338 5339 5340 5340 5341 5343 5344 5345 5346 5347 5348 5348 5350 5352
5349 5345 5340 5338 5340 5347 5367 5354 5351 5347 5343 5340 5344 5345 5342 5341 5339 5336 5334 5332 5331 5331 5330 5329 5328 5327 5326 5325 5325 5325 5325 5326 5327 5327 5328 5329 5330 5331 5332 5333 5334 5334 5335 5337
5344 5341 5330 5326 5327 5337 5351 5348 5337 5335 5339 5335 5334 5334 5331 5327 5327 5327 5326 5323 5322 5321 5319 5318 5317 5316 5315 5314 5313 5313 5313 5313 5314 5315 5315 5316 5317 5318 5319 5320 5320 5320 5321 5322
5331 5328 5322 5315 5323 5333 5351 5340 5331 5331 5334 5333 5326 5325 5319 5318 5318 5323 5318 5314 5312 5310 5308 5306 5305 5304 5303 5303 5302 5302 5302 5302 5302 5302 5303 5304 5304 5305 5305 5306 5306 5306 5307 5308
5322 5314 5313 5309 5310 5325 5330 5323 5324 5326 5335 5326 5317 5315 5309 5307 5310 5308 5304 5302 5300 5298 5296 5295 5293 5292 5292 5291 5291 5291 5291 5290 5290 5291 5291 5291 5292 5292 5292 5292 5292 5293 5294 5295
5314 5306 5300 5298 5301 5321 5319 5314 5317 5322 5316 5311 5307 5304 5300 5298 5296 5294 5292 5291 5289 5287 5285 5283 5282 5281 5280 5280 5280 5279 5278 5279 5279 5279 5279 5279 5279 5279 5280 5280 5280 5280 5280 5280
5304 5309 5305 5307 5318 5316 5307 5307 5306 5302 5302 5300 5297 5294 5291 5287 5285 5284 5281 5278 5277 5275 5274 5273 5271 5270 5270 5269 5269 5268 5268 5268 5268 5267 5267 5267 5267 5267 5267 5267 5267 5267 5267 5267
5296 5294 5294 5293 5302 5302 5297 5294 5293 5290 5289 5289 5286 5283 5280 5277 5275 5272 5270 5268 5266 5265 5264 5262 5261 5260 5259 5259 5259 5257 5257 5257 5256 5256 5255 5256 5256 5256 5256 5256 5256 5255 5255 5254
5294 5284 5285 5288 5292 5291 5292 5287 5284 5281 5279 5276 5274 5272 5270 5268 5265 5262 5260 5258 5256 5256 5254 5253 5251 5250 5249 5248 5248 5248 5247 5246 5245 5245 5245 5245 5245 5244 5244 5244 5244 5244 5244 5243
5280 5278 5280 5291 5289 5283 5285 5280 5275 5272 5270 5267 5264 5261 5260 5258 5256 5253 5251 5249 5247 5245 5244 5242 5242 5241 5240 5239 5238 5237 5237 5236 5234 5235 5234 5234 5234 5234 5233 5233 5234 5234 5234 5235